CSC9103 ZGSZ-RPLL

Flight info

Callsign CSC9103
Flight time N/A
Altitude 33000
Route SIERA1 SIERA DCT ROCCA DCT SKATE V642 NOMAN A461 AVMUP W16 TADEL TADEL5R
Aircraft A321/M-SDE1E3FGHIRWY/LB1

Departure

Time N/A
Airport Shenzhen Bao'an International Airport (ZGSZ)

Arrival

Time 2026-04-30 18:52
Airport Ninoy Aquino International Airport (RPLL)
Time Latitude Longitude Altitude Speed Heading
2026-04-30 17:39 21.21272 115.59176 29109 ft 495 kts 130°
2026-04-30 17:41 21.04538 115.82500 31127 ft 492 kts 131°
2026-04-30 17:42 21.00372 115.88281 31653 ft 490 kts 131°
2026-04-30 17:42 20.94139 115.96927 32374 ft 488 kts 132°
2026-04-30 17:43 20.89992 116.02677 32853 ft 488 kts 132°
2026-04-30 17:44 20.83325 116.10804 32972 ft 478 kts 147°
2026-04-30 17:44 20.75039 116.16573 32970 ft 474 kts 153°
2026-04-30 17:47 20.50030 116.33514 32964 ft 473 kts 153°
2026-04-30 17:48 20.30550 116.46652 32959 ft 473 kts 153°
2026-04-30 17:50 20.08250 116.61631 32970 ft 474 kts 153°
2026-04-30 17:52 19.93043 116.75249 32981 ft 485 kts 137°
2026-04-30 17:54 19.72532 116.98991 32975 ft 484 kts 137°
2026-04-30 17:56 19.54330 117.19993 32971 ft 484 kts 137°
2026-04-30 17:58 19.40645 117.35731 32978 ft 484 kts 137°
2026-04-30 18:00 19.22402 117.56643 32965 ft 484 kts 137°
2026-04-30 18:01 19.11020 117.69653 32978 ft 483 kts 137°
2026-04-30 18:02 18.97340 117.85260 32967 ft 482 kts 137°
2026-04-30 18:04 18.83650 118.00839 32966 ft 482 kts 137°
2026-04-30 18:06 18.65424 118.21498 32982 ft 481 kts 137°
2026-04-30 18:08 18.49470 118.39534 32976 ft 481 kts 137°
2026-04-30 18:10 18.31988 118.59233 32981 ft 480 kts 137°
2026-04-30 18:11 18.16017 118.77182 32982 ft 480 kts 137°
2026-04-30 18:13 18.04607 118.89964 32980 ft 479 kts 137°
2026-04-30 18:13 17.97351 118.96977 32978 ft 470 kts 152°
2026-04-30 18:14 17.91630 119.00336 32974 ft 468 kts 155°
2026-04-30 18:15 17.74552 119.10231 32968 ft 468 kts 155°
2026-04-30 18:16 17.63147 119.16833 32981 ft 468 kts 155°
2026-04-30 18:17 17.57441 119.20131 32980 ft 468 kts 155°
2026-04-30 18:18 17.48878 119.25078 32989 ft 468 kts 155°
2026-04-30 18:18 17.43176 119.28373 32981 ft 468 kts 155°
2026-04-30 18:19 17.37473 119.31660 32981 ft 468 kts 155°
2026-04-30 18:19 17.31775 119.34930 32983 ft 467 kts 155°
2026-04-30 18:20 17.26074 119.38209 32984 ft 467 kts 155°
2026-04-30 18:20 17.20419 119.41461 32982 ft 467 kts 155°
2026-04-30 18:21 17.14724 119.44737 32976 ft 467 kts 155°
2026-04-30 18:21 17.09032 119.48014 32965 ft 467 kts 155°
2026-04-30 18:22 17.03340 119.51285 32964 ft 467 kts 155°
2026-04-30 18:22 16.94788 119.56174 32962 ft 467 kts 155°
2026-04-30 18:23 16.89094 119.59439 32963 ft 467 kts 155°
2026-04-30 18:23 16.83399 119.62706 32962 ft 467 kts 155°
2026-04-30 18:24 16.74853 119.67589 32950 ft 467 kts 155°
2026-04-30 18:25 16.69157 119.70843 32954 ft 466 kts 155°
2026-04-30 18:25 16.60647 119.75700 32956 ft 466 kts 155°
2026-04-30 18:26 16.52111 119.80576 32953 ft 466 kts 155°
2026-04-30 18:27 16.43587 119.85429 32957 ft 466 kts 155°
2026-04-30 18:28 16.35047 119.90295 32961 ft 466 kts 155°
2026-04-30 18:28 16.26550 119.95119 32963 ft 466 kts 155°
2026-04-30 18:29 16.15157 120.01593 32963 ft 466 kts 155°
2026-04-30 18:30 16.03833 120.08026 32991 ft 465 kts 154°
2026-04-30 18:31 15.95319 120.12846 32992 ft 464 kts 155°
2026-04-30 18:32 15.86811 120.17663 32993 ft 464 kts 154°
2026-04-30 18:33 15.78317 120.22470 33003 ft 463 kts 154°
2026-04-30 18:33 15.69838 120.27271 33003 ft 462 kts 154°
2026-04-30 18:34 15.61380 120.32035 33006 ft 462 kts 154°
2026-04-30 18:34 15.58540 120.33632 32729 ft 462 kts 154°
2026-04-30 18:35 15.55723 120.35215 31674 ft 470 kts 154°
2026-04-30 18:35 15.52828 120.36843 30819 ft 473 kts 154°
2026-04-30 18:35 15.49944 120.38469 30462 ft 465 kts 154°
2026-04-30 18:36 15.44457 120.41571 30227 ft 442 kts 154°
2026-04-30 18:36 15.41719 120.43063 30116 ft 445 kts 159°
2026-04-30 18:36 15.35843 120.45115 28890 ft 445 kts 165°
2026-04-30 18:37 15.32870 120.46050 28288 ft 452 kts 165°
2026-04-30 18:37 15.29837 120.46993 27661 ft 456 kts 165°
2026-04-30 18:37 15.26790 120.47941 27034 ft 455 kts 165°
2026-04-30 18:37 15.23777 120.48886 26407 ft 453 kts 164°
2026-04-30 18:38 15.20763 120.49838 25788 ft 450 kts 164°
2026-04-30 18:38 15.17768 120.50790 25167 ft 449 kts 164°
2026-04-30 18:38 15.14794 120.51738 24540 ft 447 kts 163°
2026-04-30 18:38 15.11831 120.52678 23928 ft 446 kts 163°
2026-04-30 18:39 15.08872 120.53614 23313 ft 443 kts 163°
2026-04-30 18:39 15.05990 120.54523 22940 ft 434 kts 163°
2026-04-30 18:39 15.03124 120.55428 22442 ft 428 kts 163°
2026-04-30 18:39 15.00291 120.56327 21896 ft 423 kts 163°
2026-04-30 18:40 14.97489 120.57219 21360 ft 418 kts 163°
2026-04-30 18:40 14.94722 120.58099 20856 ft 413 kts 162°
2026-04-30 18:40 14.91988 120.58967 20335 ft 409 kts 162°
2026-04-30 18:40 14.89279 120.59825 19798 ft 405 kts 162°
2026-04-30 18:41 14.86594 120.60673 19287 ft 402 kts 162°
2026-04-30 18:41 14.83947 120.61506 18738 ft 400 kts 162°
2026-04-30 18:41 14.81299 120.62341 18158 ft 398 kts 162°
2026-04-30 18:41 14.78637 120.63180 17391 ft 400 kts 162°
2026-04-30 18:42 14.75998 120.64012 16629 ft 390 kts 162°
2026-04-30 18:42 14.71027 120.65584 15198 ft 359 kts 161°
2026-04-30 18:42 14.68675 120.66326 14503 ft 346 kts 161°
2026-04-30 18:45 14.47497 120.72711 8011 ft 285 kts 162°
2026-04-30 18:45 14.45598 120.73269 7404 ft 280 kts 162°
2026-04-30 18:45 14.43736 120.73801 6782 ft 274 kts 162°
2026-04-30 18:46 14.41911 120.74314 6175 ft 270 kts 162°
2026-04-30 18:46 14.40177 120.74922 5538 ft 261 kts 146°
2026-04-30 18:46 14.38881 120.76153 4926 ft 251 kts 120°
2026-04-30 18:46 14.38288 120.77788 4318 ft 239 kts 95°
2026-04-30 18:47 14.38445 120.79444 3895 ft 224 kts 71°
2026-04-30 18:47 14.39121 120.80838 3738 ft 212 kts 60°
2026-04-30 18:47 14.39841 120.82133 3668 ft 205 kts 61°
2026-04-30 18:47 14.40535 120.83385 3491 ft 202 kts 61°
2026-04-30 18:48 14.41229 120.84632 3260 ft 200 kts 61°
2026-04-30 18:48 14.41924 120.85880 3009 ft 200 kts 61°
2026-04-30 18:48 14.42616 120.87123 2748 ft 199 kts 61°
2026-04-30 18:48 14.43304 120.88359 2492 ft 197 kts 60°
2026-04-30 18:49 14.43975 120.89565 2237 ft 194 kts 59°
2026-04-30 18:49 14.44635 120.90751 2022 ft 186 kts 59°
2026-04-30 18:49 14.45267 120.91888 1771 ft 176 kts 59°
2026-04-30 18:49 14.45860 120.92955 1554 ft 166 kts 59°
2026-04-30 18:50 14.46421 120.93963 1316 ft 155 kts 59°
2026-04-30 18:50 14.46941 120.94898 1134 ft 149 kts 59°
2026-04-30 18:50 14.47452 120.95816 944 ft 148 kts 58°
2026-04-30 18:50 14.47965 120.96737 784 ft 146 kts 60°
2026-04-30 18:51 14.48468 120.97653 616 ft 147 kts 60°
2026-04-30 18:51 14.48975 120.98559 428 ft 147 kts 59°
2026-04-30 18:51 14.49487 120.99477 260 ft 148 kts 59°
2026-04-30 18:51 14.50000 121.00393 82 ft 144 kts 59°
2026-04-30 18:52 14.50440 121.01185 64 ft 94 kts 60°
2026-04-30 18:52 14.50664 121.01587 63 ft 49 kts 59°
2026-04-30 18:52 14.50813 121.01755 59 ft 19 kts 37°
2026-04-30 18:52 14.50885 121.01784 59 ft 9 kts 335°
2026-04-30 18:53 14.50929 121.01745 64 ft 8 kts 317°
2026-04-30 18:53 14.50989 121.01685 61 ft 16 kts 314°
2026-04-30 18:53 14.51068 121.01603 58 ft 16 kts 315°
2026-04-30 18:53 14.51145 121.01524 65 ft 15 kts 315°
2026-04-30 18:54 14.51219 121.01447 65 ft 15 kts 315°
2026-04-30 18:54 14.51289 121.01435 59 ft 10 kts 46°
2026-04-30 18:54 14.51335 121.01488 66 ft 9 kts 51°
2026-04-30 18:54 14.51375 121.01537 58 ft 10 kts 40°
2026-04-30 18:55 14.51434 121.01508 65 ft 11 kts 315°
2026-04-30 18:55 14.51570 121.01370 65 ft 16 kts 315°
2026-04-30 18:55 14.51637 121.01306 66 ft 9 kts 338°
2026-04-30 18:56 14.51788 121.01249 64 ft 16 kts 315°
2026-04-30 18:56 14.51818 121.01218 69 ft 0 kts 315°
2026-04-30 18:57 14.51873 121.01247 65 ft 9 kts 44°
2026-04-30 18:57 14.51898 121.01272 63 ft 2 kts 44°
2026-04-30 18:57 14.51901 121.01276 71 ft 0 kts 44°